Location: Bottens
(46.6171°N, 6.6605°E)
Time: 08:29:47
(UTC+00:00)

Cosmos 1825 - Pass Details

Date: 29 October 2021
Orbit: 501 x 504 km, 82.5° (Epoch: 28 November)

Event Time Altitude Azimuth Distance (km) Brightness Sun altitude
Rises 17:55:51 0° 353° (N) 2,609 5.8 -16.5°
Reaches altitude 10° 17:57:59 10° 355° (N) 1,720 4.9 -16.9°
Maximum altitude 18:01:45 69° 79° (E) 542 2.0 -17.5°
Drops below altitude 10° 18:05:28 10° 164° (SSE) 1,707 4.7 -18.2°
Sets 18:07:35 0° 167° (SSE) 2,587 5.6 -18.5°
